TimeCST,TemperatureF,Dew PointF,Humidity,Sea Level PressureIn,VisibilityMPH,Wind Direction,Wind SpeedMPH,Gust SpeedMPH,PrecipitationIn,Events,Conditions,WindDirDegrees,DateUTC
12:10 AM,35.6,28.4,75,30.17,6.0,NE,6.9,-,N/A,,Haze,40,2012-11-05 06:10:00
12:53 AM,35.1,27.0,72,30.23,10.0,NE,6.9,-,N/A,,Overcast,50,2012-11-05 06:53:00
1:53 AM,34.0,27.0,75,30.23,10.0,ENE,9.2,-,N/A,,Overcast,60,2012-11-05 07:53:00
2:53 AM,34.0,28.0,79,30.23,10.0,ENE,6.9,-,N/A,,Overcast,60,2012-11-05 08:53:00
3:06 AM,33.8,28.4,81,30.18,10.0,ENE,9.2,-,N/A,,Overcast,70,2012-11-05 09:06:00
3:53 AM,34.0,28.0,79,30.23,10.0,ENE,8.1,-,N/A,,Overcast,60,2012-11-05 09:53:00
4:26 AM,33.8,28.4,81,30.17,10.0,ENE,6.9,-,N/A,,Overcast,70,2012-11-05 10:26:00
4:53 AM,34.0,28.0,79,30.24,10.0,ENE,6.9,-,N/A,,Overcast,60,2012-11-05 10:53:00
5:53 AM,34.0,27.0,75,30.24,10.0,ENE,6.9,-,N/A,,Overcast,70,2012-11-05 11:53:00
6:53 AM,34.0,27.0,75,30.24,7.0,East,5.8,-,N/A,,Overcast,80,2012-11-05 12:53:00
7:53 AM,33.1,30.0,89,30.25,4.0,East,4.6,-,N/A,,Overcast,80,2012-11-05 13:53:00
8:35 AM,32.0,30.2,93,30.19,3.0,Calm,Calm,-,N/A,,Overcast,0,2012-11-05 14:35:00
8:53 AM,32.0,30.0,92,30.25,3.0,East,5.8,-,N/A,,Overcast,90,2012-11-05 14:53:00
9:20 AM,32.0,30.2,93,30.19,2.5,East,4.6,-,N/A,,Overcast,90,2012-11-05 15:20:00
9:53 AM,33.1,30.0,89,30.25,3.0,East,4.6,-,N/A,,Overcast,80,2012-11-05 15:53:00
10:53 AM,33.1,30.9,92,30.25,4.0,ESE,4.6,-,N/A,,Overcast,110,2012-11-05 16:53:00
11:53 AM,34.0,32.0,92,30.23,3.0,ESE,4.6,-,N/A,,Overcast,110,2012-11-05 17:53:00
12:13 PM,33.8,32.0,93,30.16,2.5,Calm,Calm,-,N/A,,Overcast,0,2012-11-05 18:13:00
12:27 PM,35.6,32.0,87,30.16,4.0,Variable,3.5,-,N/A,,Overcast,0,2012-11-05 18:27:00
12:53 PM,35.1,33.1,92,30.20,3.0,SE,3.5,-,N/A,,Overcast,130,2012-11-05 18:53:00
1:53 PM,36.0,34.0,93,30.18,4.0,ESE,3.5,-,N/A,,Overcast,110,2012-11-05 19:53:00
2:14 PM,35.6,33.8,93,30.10,2.5,SE,5.8,-,N/A,,Overcast,130,2012-11-05 20:14:00
2:53 PM,37.0,34.0,89,30.15,2.5,SE,5.8,-,N/A,,Overcast,130,2012-11-05 20:53:00
3:18 PM,37.4,33.8,87,30.09,7.0,SE,5.8,-,N/A,,Overcast,140,2012-11-05 21:18:00
3:53 PM,37.0,34.0,89,30.14,7.0,SE,5.8,-,N/A,,Overcast,130,2012-11-05 21:53:00
4:32 PM,37.4,33.8,87,30.06,2.5,SE,5.8,-,N/A,,Overcast,130,2012-11-05 22:32:00
4:53 PM,37.0,35.1,93,30.11,2.5,SE,6.9,-,N/A,,Overcast,130,2012-11-05 22:53:00
5:05 PM,37.4,35.6,93,30.05,3.0,ESE,5.8,-,N/A,,Overcast,120,2012-11-05 23:05:00
5:51 PM,39.2,37.4,93,30.04,2.5,SSE,9.2,-,N/A,,Overcast,150,2012-11-05 23:51:00
5:53 PM,39.0,37.0,93,30.10,2.5,SSE,9.2,-,N/A,,Overcast,150,2012-11-05 23:53:00
6:13 PM,39.2,37.4,93,30.03,2.0,SSE,10.4,-,N/A,,Overcast,160,2012-11-06 00:13:00
6:21 PM,39.2,37.4,93,30.03,1.5,South,8.1,-,N/A,,Overcast,170,2012-11-06 00:21:00
6:53 PM,39.9,39.0,97,30.08,2.0,South,9.2,-,N/A,,Overcast,170,2012-11-06 00:53:00
7:11 PM,41.0,39.2,93,30.02,3.0,South,9.2,-,N/A,,Overcast,190,2012-11-06 01:11:00
7:46 PM,39.2,39.2,100,30.00,2.5,SSW,10.4,-,N/A,,Overcast,210,2012-11-06 01:46:00
7:53 PM,39.9,37.9,93,30.06,3.0,SSW,12.7,-,N/A,,Overcast,210,2012-11-06 01:53:00
8:21 PM,39.2,37.4,93,29.98,2.5,SSW,10.4,-,N/A,,Overcast,210,2012-11-06 02:21:00
8:37 PM,39.2,37.4,93,29.98,3.0,SSW,12.7,-,N/A,,Overcast,200,2012-11-06 02:37:00
8:53 PM,39.0,37.0,93,30.04,4.0,SSW,9.2,-,N/A,,Overcast,210,2012-11-06 02:53:00
9:53 PM,37.9,36.0,93,30.00,5.0,SSW,11.5,-,N/A,,Overcast,200,2012-11-06 03:53:00
10:53 PM,37.9,36.0,93,29.98,6.0,South,8.1,-,N/A,,Overcast,190,2012-11-06 04:53:00
11:53 PM,37.9,36.0,93,29.95,3.0,South,8.1,-,0.02,Rain,Light Rain,190,2012-11-06 05:53:00